Location: Unspecified
(47.6577°N, 23.5639°E)
Time: 05:07:19
(UTC+02:00)

ISS - Pass Details

Date: 06 February 2017
Orbit: 399 x 408 km, 51.6° (Epoch: 28 February)

Event Time Altitude Azimuth Distance (km) Brightness Sun altitude
Rises 20:34:56 0° 292° (WNW) 2,323 1.6 -30.6°
Reaches altitude 10° 20:37:02 10° 296° (WNW) 1,460 0.3 -30.9°
Enters shadow 20:37:12 11° 297° (WNW) 1,397 0.2 -30.9°
